Regional Weather Roundup
Issued by NWS Newport/Morehead, NC

Current Version | Previous Version | Graphics & Text | Print | Product List | Glossary Off
Versions: 1 2 3 4 5 6 7 8 9 10 11 12 13 14 15 16 17 18 19 20 21 22 23 24 25 26 27 28 29 30 31 32 33 34 35 36 37 38 39 40 41 42 43 44 45 46 47 48 49 50

000
ASUS42 KMHX 290925
RWRMHX
WEATHER ROUNDUP FOR EASTERN NORTH CAROLINA
NATIONAL WEATHER SERVICE NEWPORT/MOREHEAD CITY NC
500 AM EDT SAT AUG 29 2015

NOTE: "FAIR" INDICATES FEW OR NO CLOUDS BELOW 12,000 FEET
WITH NO SIGNIFICANT WEATHER AND/OR OBSTRUCTIONS TO VISIBILITY

NCZ015>017-031-032-045>047-102-103-291000-
NORTH COAST

CITY           SKY/WX    TMP DP  RH WIND       PRES   REMARKS
EDENTON        CLEAR     62  60  94 N3        30.18R
ELIZABETH CITY CLEAR     64  62  93 W3        30.17S
KITTY HAWK     SUNNY     74  64  71 NE6       30.15S
MANTEO         CLEAR     73  66  79 NE8       30.16S

$$

NCZ045>047-081-094-103-104-291000-
CENTRAL COAST

CITY           SKY/WX    TMP DP  RH WIND       PRES   REMARKS
FRISCO         CLOUDY    76  70  82 NE9       30.13S
SWANQUARTER    NOT AVBL

$$

NCZ095-097-098-100-101-291000-
SOUTHERN COAST

CITY           SKY/WX    TMP DP  RH WIND       PRES   REMARKS
BEAUFORT       CLEAR     72  70  93 NE6       30.12S
CEDAR ISLAND   NOT AVBL
JACKSONVILLE   CLEAR     67  63  87 NW5       30.12F
PINEY ISLAND   PTSUNNY  N/A N/A N/A NE15      30.13R
WILMINGTON     PTCLDY    67  65  93 N5        30.12F


$$

NCZ011>013-027>030-043-044-078>080-089-090>093-098-291000-
COASTAL PLAIN

CITY           SKY/WX    TMP DP  RH WIND       PRES   REMARKS
AHOSKIE        CLEAR     56  55  97 CALM      30.19F
CLINTON        CLEAR     63  62  96 N3        30.16F
ELIZABETHTOWN  CLEAR     63  62  97 CALM      30.15S
GOLDSBORO      CLEAR     62  61  96 NW3       30.15F
GREENVILLE     CLEAR     59  59 100 CALM      30.18F FOG
HAVELOCK       PTCLDY    73  69  87 NE8       30.14F
KENANSVILLE      N/A     61  60  97 CALM      30.16F
KINSTON        CLEAR     62  61  97 CALM      30.17S
NEW BERN       CLEAR     69  66  90 NE5       30.15F
RICHLANDS      CLEAR     64  59  82 N3        30.14S
ROCKY MOUNT    CLEAR     58  57  97 NE3       30.18F
WASHINGTON     CLEAR     62  61  96 N6        30.16F
WHITEVILLE     CLEAR     65  63  91 CALM      30.14S

$$

AMZ130-135-150-152-154-156-158-170-250-252-270-ANZ085-086-088-633-658-670-291000-
MARINE OBSERVATIONS

STATION/POSITION TIME  TEMP    WIND        PRES    WAVE   SWELL
                       AIR SEA DIR/SP/G            HT/PER HT/PER
                 (UTC) (F)     (DEG/KT/KT) (MB)    (FT/S) (FT/S)
CHESAPEAKE LIGHT 0900   75      70/  9/ 10 1022.6
64 E VA BEACH    0850   77 80   50/ 10/ 12 1021.0    4/10   3/10
DUCK             NOT AVBL
2 E DUCK         0911      78                N/A     3/12   2/12
OREGON INLET     NOT AVBL
13E OREGON INLT  0900      78                N/A     4/11   2/11
HATTERAS CG      NOT AVBL
DIAMOND BUOY     0850   78 82   30/ 17/ 19 1019.4    5/11   3/11
CAPE LOOKOUT     0900   77      30/ 19/ 23 1019.5
BEAUFORT LAB     NOT AVBL
30 SE NEW RVR IN 0808   79 81   50/ 17/ 23 1019.7
30 SE NEW RVR IN 0825      81                N/A     5/ 5   2/11
27 SE WRIGHTSVLE 0900   75 82   50/ 16/ 17   N/A
5 SE WRIGHTSVLE  0808   78 82   60/ 14/ 17 1019.8
225 S CAPE HAT   0850   82 83  220/ 12/ 12 1019.2    4/11   3/11
41 SE CHARLESTON 0850   81 84   40/ 14/ 16 1018.4    4/ 6   2/11

$$


USA.gov is the U.S. government's official web portal to all federal, state and local government web resources and services.